Wind_Speed
1 2 3 4 5 6 7 9 10 12 13 14 16 17 18 19 20 21 21 22 22 23 23 23 23 23 23 24 24 24 24 25 25 27 28 28 28 28 28 28 29 29 30
3 4 5 6 8 9 10 12 13 15 16 18 19 20 21 22 22 23 23 24 24 24 24 24 25 25 25 25 25 25 25 26 27 28 30 30 31 31 32 32 33 33 33
5 7 8 9 10 12 13 15 17 19 20 21 22 23 23 24 24 24 24 24 25 25 25 26 26 26 27 27 27 27 28 28 29 30 31 33 33 34 34 36 36 37 37
8 9 11 12 13 15 17 18 20 21 22 23 24 24 24 24 25 25 25 25 25 26 26 27 28 28 29 29 30 30 31 32 33 33 34 36 37 37 38 38 39 41 42
11 12 13 15 16 18 20 21 22 23 24 24 24 25 25 25 26 26 26 27 28 28 28 29 30 31 31 32 33 34 34 35 36 37 38 39 40 42 42 42 43 43 45
13 14 16 17 19 20 21 23 23 24 24 24 25 25 26 27 27 28 29 30 30 31 32 32 33 33 34 35 36 37 38 38 39 40 41 43 44 46 47 48 48 48 48
15 16 18 19 20 21 22 23 23 24 24 24 25 26 27 28 29 30 31 32 33 34 34 35 36 37 38 39 40 40 41 42 43 44 45 46 48 49 51 52 53 54 54
16 17 18 19 20 21 21 22 23 23 24 25 26 27 28 29 30 31 32 34 35 36 37 38 39 40 41 42 43 44 45 46 47 48 49 50 52 53 55 56 57 59 60
16 17 18 19 20 20 21 22 22 23 24 25 26 27 29 30 31 32 34 35 36 37 38 40 41 43 44 45 46 47 49 50 51 52 54 56 57 59 60 61 63 65 66
16 17 18 18 19 20 20 21 22 23 24 25 27 28 29 30 31 33 34 35 36 38 39 41 43 44 46 47 49 50 52 53 55 56 58 60 62 64 66 69 70 72 73
16 16 17 18 19 20 20 21 22 24 25 26 27 28 29 30 31 32 33 35 37 38 40 42 43 45 47 49 51 53 54 56 57 59 62 65 67 70 74 76 79 81 82
15 15 17 18 18 20 21 22 24 25 26 27 28 28 30 31 32 33 34 36 38 39 41 43 44 46 49 51 53 55 57 59 61 64 66 69 73 76 80 84 88 92 94
14 15 16 17 19 21 22 23 25 26 27 29 29 30 31 32 34 35 36 38 39 41 43 45 46 48 50 52 54 57 59 61 64 67 70 74 78 82 87 92 98 101 103
14 15 16 18 20 21 23 24 26 28 29 30 31 32 34 35 36 37 38 40 41 43 45 47 48 50 52 54 56 58 61 64 67 70 74 79 83 89 94 99 103 105 108
14 15 17 18 20 22 24 26 27 29 31 33 34 35 36 37 38 39 40 42 43 45 47 49 50 52 53 56 58 60 63 67 70 74 79 84 89 95 99 101 103 105 106
14 16 17 19 21 23 25 27 28 30 32 34 36 37 38 39 40 42 43 44 45 47 49 51 53 54 56 57 60 63 66 70 74 78 83 88 94 98 100 102 102 100 99
16 17 18 20 21 23 25 27 29 31 33 35 37 38 39 41 42 44 45 46 47 49 51 54 55 57 58 60 62 65 69 73 78 82 87 92 96 98 100 100 99 96 92
18 19 20 22 23 25 26 28 30 32 35 37 38 40 41 42 43 45 46 48 49 51 53 56 58 60 61 62 65 68 71 76 81 85 89 93 95 97 97 96 93 89 85
20 22 23 25 26 27 28 30 32 34 36 38 40 42 43 44 45 47 48 49 51 53 55 58 60 62 64 65 67 70 74 78 83 87 90 92 94 94 93 91 87 83 79
24 25 26 27 28 29 31 32 34 36 38 40 42 43 44 46 47 48 50 51 53 55 57 60 62 64 66 68 69 72 76 80 84 87 89 90 91 90 89 86 81 76 72
27 28 29 30 31 32 33 35 36 38 40 42 44 45 47 48 49 50 51 53 55 57 59 61 64 66 69 70 72 74 76 80 83 84 85 86 86 85 83 81 76 71 67
30 31 32 34 35 36 36 38 39 41 42 44 46 47 49 50 51 52 53 55 56 58 61 63 66 68 71 73 75 77 78 79 81 82 82 82 82 80 79 76 72 68 64
32 34 35 36 37 38 39 40 41 43 45 47 48 49 51 52 53 54 55 56 58 60 63 65 67 70 72 75 78 80 82 82 83 80 77 77 76 74 74 71 68 65 61
35 37 38 39 40 41 42 43 44 46 47 49 50 52 53 54 55 56 57 58 60 62 65 67 70 72 74 77 79 82 83 85 86 83 76 72 71 69 68 67 65 61 57
38 39 41 42 42 44 45 46 47 48 49 51 52 54 54 56 57 57 58 60 62 64 66 69 72 74 76 78 80 81 82 83 84 84 78 70 65 64 63 63 62 59 54
41 42 43 44 45 46 47 48 49 50 52 53 54 56 56 57 58 59 60 62 64 66 68 71 73 75 77 79 80 81 81 81 81 81 79 72 65 59 58 58 58 57 53
Wind_Direction
50 342 325 321 320 317 315 313 312 311 309 307 306 304 302 301 299 299 298 297 296 295 293 292 291 289 287 285 283 281 280 278 277 275 273 272 270 268 267 267 266 264 261
351 333 325 321 318 316 314 312 310 308 306 305 304 303 302 300 299 298 298 297 297 296 295 294 293 292 290 289 287 285 283 281 278 277 276 274 271 269 267 266 265 265 263
333 325 319 317 315 313 311 309 307 306 304 303 303 302 301 300 299 299 298 297 296 296 295 294 294 293 292 290 289 288 286 284 281 280 278 277 275 272 268 266 265 264 263
321 317 315 314 312 310 308 306 305 305 304 303 303 302 302 301 300 300 299 298 296 294 293 293 292 291 290 290 289 288 287 285 283 282 280 279 278 276 272 269 266 264 263
314 312 312 311 309 308 307 306 305 305 304 305 305 305 304 304 303 301 300 298 296 295 293 292 291 289 289 288 287 287 286 285 284 282 281 280 279 277 276 273 270 266 264
310 309 309 309 308 307 307 307 307 307 307 308 308 308 308 306 305 303 301 299 297 295 294 292 290 289 288 287 286 286 285 285 284 283 281 280 279 278 277 275 272 269 266
308 308 308 308 308 308 308 309 310 311 311 312 312 311 310 309 307 304 302 300 298 296 294 292 290 288 288 287 286 285 284 284 283 282 281 280 279 278 277 276 274 271 268
307 308 308 308 309 310 311 312 313 314 314 315 315 314 313 311 309 306 304 301 299 297 295 293 291 289 288 287 286 285 283 282 281 280 279 278 278 276 275 274 273 271 269
308 309 310 310 311 313 314 315 316 317 317 317 317 316 315 314 312 310 307 304 302 299 297 295 293 291 289 288 287 285 284 282 281 279 278 277 276 275 274 272 272 271 269
310 310 311 313 314 316 317 318 318 319 319 319 318 318 317 316 315 313 311 309 306 304 301 299 296 294 292 290 288 287 286 285 284 283 282 281 280 278 277 275 273 271 269
311 313 315 316 317 319 320 320 320 321 320 320 319 319 319 319 319 318 316 314 312 309 306 303 300 298 295 293 292 290 289 288 288 287 287 286 285 284 283 280 278 275 272
314 317 319 320 321 321 321 321 321 321 320 320 319 319 320 320 320 320 320 318 316 314 311 308 305 302 299 297 295 294 293 293 292 292 292 291 290 290 288 285 283 281 277
319 321 323 323 323 322 322 322 321 320 319 318 317 317 318 319 319 319 319 319 318 317 315 313 310 307 304 301 299 298 297 296 296 296 296 295 295 294 292 290 288 284 280
323 325 326 324 324 324 323 323 322 321 319 318 317 316 317 317 316 317 317 317 318 318 317 316 314 311 308 305 303 301 300 299 299 299 299 299 298 297 296 293 290 286 281
324 326 327 326 326 326 326 326 324 322 320 318 317 316 316 316 315 315 316 316 317 318 318 318 316 313 310 307 305 304 303 303 303 303 303 303 302 300 298 295 291 286 282
321 324 325 326 327 327 327 326 325 324 322 320 318 317 316 316 315 315 315 316 316 317 318 318 317 315 312 310 308 307 306 306 306 306 306 306 305 303 300 297 293 288 282
316 319 322 324 325 326 326 326 326 326 324 322 321 319 318 317 316 316 316 316 316 316 317 318 318 317 315 313 311 310 309 309 309 309 309 308 307 305 302 298 294 289 283
310 313 316 319 322 323 324 325 326 326 325 325 323 322 320 319 318 317 316 316 316 317 317 318 319 318 317 315 314 313 312 312 312 311 311 311 309 306 303 299 296 291 286
306 308 311 314 317 320 322 323 324 325 326 325 324 323 321 320 319 318 317 317 316 317 318 318 319 319 318 317 316 315 315 314 314 314 314 313 311 308 305 301 297 293 288
302 305 307 310 313 315 318 320 321 322 324 325 324 323 322 321 320 318 318 317 317 317 318 319 320 320 320 319 318 318 318 317 317 317 316 314 311 309 306 303 300 296 291
300 303 305 307 309 312 314 316 317 318 320 322 323 323 322 321 320 318 318 318 318 318 319 320 321 322 321 321 320 320 320 319 319 319 317 315 312 310 308 305 303 300 295
298 301 303 305 307 309 311 313 315 316 317 319 321 321 321 320 320 319 318 318 319 320 320 321 322 323 323 322 322 321 322 321 321 321 320 317 314 312 310 308 306 303 300
296 299 302 304 305 307 309 311 313 315 316 317 319 319 320 320 319 319 319 319 320 321 322 323 324 324 324 323 323 323 323 324 324 325 322 319 316 314 312 311 309 307 304
295 298 300 302 304 306 308 310 311 313 315 316 318 318 318 319 319 319 319 320 320 321 323 324 325 325 325 325 324 324 324 325 326 327 326 322 319 317 314 313 311 311 309
294 296 298 300 302 304 306 308 310 311 313 315 316 317 317 318 318 318 319 319 321 322 324 325 326 326 326 325 325 325 325 325 325 327 328 326 323 320 317 315 313 313 312
293 295 296 298 300 301 304 306 308 310 312 313 315 316 316 317 317 318 318 319 321 322 324 326 326 326 326 326 325 326 326 326 326 326 327 328 327 325 320 317 314 315 314
Height
5874 5874 5874 5873 5873 5873 5873 5872 5872 5871 5871 5870 5870 5869 5868 5867 5866 5865 5864 5863 5862 5862 5861 5861 5860 5860 5860 5860 5861 5861 5862 5862 5862 5862 5862 5864 5865 5867 5868 5869 5871 5872 5874
5873 5873 5873 5872 5872 5872 5871 5871 5870 5869 5869 5868 5867 5865 5864 5863 5862 5861 5860 5859 5858 5857 5856 5856 5855 5855 5855 5854 5855 5855 5856 5856 5856 5856 5856 5857 5859 5861 5862 5863 5865 5866 5868
5872 5872 5871 5871 5870 5870 5869 5868 5867 5866 5865 5864 5863 5862 5860 5859 5858 5857 5856 5855 5854 5853 5852 5851 5850 5850 5849 5849 5849 5849 5850 5850 5849 5850 5850 5851 5852 5854 5856 5857 5858 5860 5861
5871 5871 5870 5869 5868 5867 5867 5865 5864 5863 5861 5860 5859 5857 5856 5855 5853 5852 5851 5850 5849 5848 5847 5846 5845 5844 5843 5843 5843 5843 5843 5842 5842 5843 5843 5844 5844 5845 5847 5849 5851 5853 5854
5870 5869 5868 5867 5866 5865 5863 5862 5860 5859 5857 5856 5854 5852 5851 5850 5848 5847 5846 5845 5844 5843 5842 5841 5839 5838 5838 5837 5836 5836 5835 5835 5835 5835 5835 5836 5836 5836 5838 5840 5842 5844 5846
5868 5866 5865 5864 5863 5861 5860 5858 5856 5855 5853 5851 5849 5848 5846 5844 5843 5842 5840 5839 5838 5837 5835 5834 5833 5832 5831 5830 5829 5828 5827 5827 5826 5826 5826 5826 5826 5827 5827 5829 5831 5834 5836
5865 5864 5863 5861 5860 5858 5856 5854 5852 5850 5848 5846 5844 5843 5841 5839 5837 5836 5834 5832 5831 5830 5828 5827 5826 5824 5823 5822 5821 5820 5819 5818 5817 5816 5816 5816 5816 5816 5816 5817 5819 5821 5824
5863 5861 5860 5858 5856 5855 5853 5850 5848 5846 5844 5842 5840 5838 5835 5833 5831 5829 5827 5825 5823 5822 5820 5818 5817 5815 5814 5812 5811 5810 5809 5808 5807 5806 5805 5805 5804 5804 5804 5805 5806 5807 5809
5860 5858 5857 5855 5853 5851 5849 5847 5845 5842 5840 5838 5835 5833 5830 5828 5825 5823 5820 5818 5816 5813 5811 5809 5807 5805 5803 5801 5799 5798 5796 5795 5794 5793 5792 5791 5791 5790 5790 5790 5791 5793 5794
5857 5855 5854 5852 5850 5848 5846 5843 5841 5838 5836 5833 5831 5828 5825 5822 5819 5816 5813 5810 5807 5804 5802 5799 5796 5794 5791 5789 5786 5784 5782 5780 5779 5777 5775 5774 5773 5772 5771 5771 5772 5773 5775
5854 5852 5851 5849 5847 5845 5842 5840 5837 5834 5832 5829 5826 5823 5819 5816 5813 5809 5806 5802 5799 5795 5792 5789 5785 5782 5779 5776 5773 5770 5767 5764 5762 5759 5757 5754 5752 5750 5748 5747 5747 5748 5749
5851 5850 5848 5846 5844 5841 5839 5836 5833 5830 5827 5824 5821 5818 5814 5810 5806 5803 5799 5794 5790 5787 5782 5778 5774 5770 5767 5762 5758 5754 5751 5747 5744 5740 5736 5733 5730 5726 5723 5721 5718 5717 5718
5848 5847 5845 5842 5840 5838 5835 5832 5829 5826 5823 5819 5816 5812 5808 5804 5800 5796 5791 5787 5782 5777 5773 5768 5763 5758 5754 5749 5744 5739 5735 5730 5726 5721 5716 5712 5707 5702 5697 5692 5688 5684 5682
5845 5844 5842 5839 5837 5834 5831 5828 5825 5821 5818 5814 5810 5806 5802 5797 5793 5788 5783 5778 5773 5768 5763 5757 5752 5746 5741 5735 5730 5725 5719 5714 5708 5702 5696 5689 5683 5676 5669 5661 5653 5647 5642
5842 5841 5839 5836 5833 5830 5827 5824 5820 5816 5812 5808 5804 5799 5795 5790 5785 5780 5775 5770 5764 5759 5753 5747 5741 5735 5729 5723 5716 5710 5704 5697 5689 5682 5674 5666 5657 5647 5636 5626 5616 5607 5600
5839 5837 5835 5832 5829 5826 5823 5819 5815 5811 5807 5802 5797 5792 5787 5782 5777 5772 5766 5761 5755 5749 5743 5737 5730 5724 5717 5710 5702 5695 5687 5679 5671 5662 5652 5641 5629 5616 5603 5590 5578 5568 5560
5836 5834 5831 5828 5825 5822 5818 5814 5810 5805 5801 5796 5791 5785 5780 5774 5768 5763 5757 5751 5745 5739 5733 5726 5719 5711 5704 5697 5689 5680 5671 5661 5651 5640 5628 5615 5601 5586 5570 5555 5542 5531 5522
5832 5830 5827 5824 5821 5817 5813 5808 5804 5799 5795 5789 5784 5778 5772 5766 5760 5754 5748 5741 5735 5728 5721 5714 5706 5699 5691 5683 5674 5665 5654 5643 5631 5618 5604 5588 5572 5555 5538 5522 5508 5497 5488
5828 5825 5822 5819 5815 5812 5807 5803 5798 5793 5788 5782 5777 5770 5764 5758 5752 5745 5738 5731 5724 5717 5710 5702 5694 5686 5677 5668 5660 5649 5638 5625 5611 5595 5578 5560 5542 5524 5507 5492 5478 5467 5458
5824 5821 5817 5814 5810 5805 5801 5796 5791 5786 5781 5775 5769 5763 5756 5749 5743 5736 5728 5721 5714 5706 5698 5689 5681 5672 5662 5653 5644 5633 5620 5605 5588 5571 5552 5533 5514 5496 5479 5464 5451 5440 5431
5818 5815 5811 5807 5803 5798 5794 5789 5784 5779 5773 5767 5761 5754 5747 5740 5733 5726 5718 5710 5702 5694 5685 5677 5667 5657 5647 5637 5628 5618 5605 5588 5569 5549 5529 5509 5489 5471 5454 5439 5427 5416 5407
5812 5809 5805 5800 5796 5791 5787 5782 5777 5771 5765 5759 5752 5745 5738 5730 5723 5715 5707 5699 5690 5682 5672 5663 5653 5643 5631 5619 5608 5598 5587 5575 5555 5534 5511 5488 5467 5449 5432 5417 5405 5394 5384
5805 5802 5798 5793 5788 5783 5779 5774 5768 5762 5756 5749 5743 5735 5728 5720 5712 5704 5696 5687 5678 5669 5659 5649 5638 5627 5616 5602 5587 5574 5561 5550 5536 5521 5497 5473 5450 5431 5413 5399 5387 5375 5365
5798 5794 5790 5785 5780 5775 5770 5765 5759 5753 5747 5740 5733 5726 5718 5710 5701 5693 5684 5675 5666 5656 5646 5635 5623 5611 5599 5585 5570 5554 5538 5521 5506 5496 5483 5459 5437 5417 5398 5383 5370 5359 5349
5790 5786 5781 5777 5772 5766 5761 5756 5750 5744 5737 5730 5723 5715 5707 5699 5690 5682 5673 5663 5653 5643 5632 5620 5608 5595 5582 5568 5553 5537 5520 5502 5482 5465 5456 5444 5425 5404 5385 5369 5356 5345 5336
5781 5777 5772 5768 5763 5757 5752 5746 5740 5734 5727 5720 5712 5704 5696 5688 5679 5670 5661 5651 5641 5630 5618 5606 5593 5580 5566 5552 5536 5520 5503 5485 5467 5447 5432 5421 5409 5394 5374 5358 5343 5332 5324